Hourly Data Report for October 16, 2014

All times are specified in Local Standard Time (LST). Add 1 hour to adjust for Daylight Saving Time where and when it is observed.

MONCTON INTL A
NEW BRUNSWICK

46°06'44.000" N
64°40'43.000" W
70.70 m
8103201
71705
YQM

Download Data

Hourly Data (October 2014)
Hourly Data Report for October 16, 2014
Temp Definition
°C
Dew Point Temp Definition
°C
Rel Hum Definition
%
Wind Dir Definition
10's deg

Wind Spd Definition
km/h
Visibility Definition
km
Stn Press Definition
kPa
Hmdx Definition


Wind Chill Definition


Weather Definition


TIME
00:00 Legend Double Dagger 12.7 9.2 79 6 16 24.1 101.11     Rain Showers
01:00 Legend Double Dagger 11.4 9.8 90 6 16 16.1 101.10     Rain Showers
02:00 Legend Double Dagger 11.1 10.3 95 7 19 16.1 101.06     Rain Showers
03:00 Legend Double Dagger 11.2 10.6 96 8 13 16.1 101.04     Drizzle
04:00 Legend Double Dagger 11.1 10.3 95 5 11 19.3 100.99     LegendNANA
05:00 Legend Double Dagger 10.8 10.2 96 5 9 4.0 100.99     Drizzle,Fog
06:00 Legend Double Dagger 10.9 10.5 97 5 10 1.2 100.98     Drizzle,Fog
07:00 Legend Double Dagger 11.2 10.8 97 5 9 0.6 101.00     Drizzle,Fog
08:00 Legend Double Dagger 11.6 11.1 97 4 8 0.6 101.05     Drizzle,Fog
09:00 Legend Double Dagger 12.2 11.7 97 6 8 0.6 101.06     Fog
10:00 Legend Double Dagger 13.0 12.5 97 3 11 1.2 101.06     Fog
11:00 Legend Double Dagger 13.5 13.0 97 7 13 1.0 101.03     Rain Showers,Fog
12:00 Legend Double Dagger 14.4 13.9 97 4 7 2.8 101.01     Fog
13:00 Legend Double Dagger 15.8 14.7 93 4 8 12.9 100.91     LegendNANA
14:00 Legend Double Dagger 15.8 14.7 93 2 11 12.9 100.92     Cloudy
15:00 Legend Double Dagger 14.3 13.5 95 2 14 2.4 100.91     Fog
16:00 Legend Double Dagger 14.1 13.5 96 3 12 1.0 100.90     Fog
17:00 Legend Double Dagger 14.2 13.7 97 2 7 0.8 100.91     Fog
18:00 Legend Double Dagger 14.1 13.6 97 2 8 0.4 100.90     Fog
19:00 Legend Double Dagger 14.1 13.6 97 5 5 0.4 100.89     Fog
20:00 Legend Double Dagger 14.7 14.2 97 9 6 9.7 100.85     Drizzle,Fog
21:00 Legend Double Dagger 17.1 16.8 98 13 10 12.9 100.84     Rain Showers
22:00 Legend Double Dagger 17.4 16.9 97 12 11 16.1 100.79     LegendNANA
23:00 Legend Double Dagger 18.0 17.5 97 13 14 19.3 100.73     Cloudy

Notes on Data Quality.

Legend

  • E = Estimated
  • M = Missing
  • NA = Not Available
  • ‡ = Partner data that is not subject to review by the National Climate Archives
Date modified: